Zurück zum Katalog

COSMOS 1302

AktivMilitärLEO
NORAD 12791·PAYLOAD·🇷🇺 Russia

Gestartet Aug 28, 1981 von Plesetsk Cosmodrome

Loading…

Nächste Überflüge (nächste 24 Stunden)

TLE

AktuellSource: Space-Track

Epoche: Sep 14, 2026, 11:13 UTC

1 12791U 81084A   26257.46805073  .00000068  00000-0  32996-4 0  9993
2 12791  74.0258  67.4144 0018804 203.9014 156.1267 14.35075749355538

Verfolge COSMOS 1302 in Echtzeit mit AllMySat

Download on the App Store